Regional Weather Roundup
Issued by NWS State College, PA

Home | Current Version | Previous Version | Text Only | Print | Product List | Glossary On
Versions: 1 2 3 4 5 6 7 8 9 10 11 12 13 14 15 16 17 18 19 20 21 22 23 24 25 26 27 28 29 30 31 32 33 34 35 36 37 38 39 40 41 42 43 44 45 46 47 48 49 50
000
ASUS41 KCTP 130410
RWRCTP

REGIONAL WEATHER ROUNDUP
NATIONAL WEATHER SERVICE STATE COLLEGE PA
1100 PM EST TUE DEC 12 2017

Note: "fair" indicates few or no clouds below 12,000 feet with no
significant weather and/or obstructions to visibility.

* = STATION THAT DOES NOT REPORT PRECIPITATION /E.G. RAIN...SNOW...ETC/
    THUNDER OR FOG.

PAZ002>004-007>009-013>016-020>023-029>032-130500-
WESTERN PENNSYLVANIA

CITY           SKY/WX    TMP DP  RH WIND       PRES   REMARKS
ERIE           CLOUDY    19   9  65 W18G29    29.72F WCI   4
MEADVILLE      LGT SNOW  12   9  87 W13G22    29.70F FOG     WCI  -3
FRANKLIN*      FLURRIES  10   5  80 W8        29.69F WCI  -2
NEW CASTLE     NOT AVBL
BEAVER COUNTY  NOT AVBL
BUTLER*        PTCLDY    12   7  80 W10       29.75F WCI  -1
PITTSBURGH INT PTCLDY    16   8  71 W12       29.77F WCI   3
PITTSBURGH     MOCLDY    13   5  70 W9G23     29.76F WCI   1
INDIANA*       CLOUDY    14   9  79 W13G26    29.75S WCI   0
LATROBE        MOCLDY    14   7  73 W10       29.78R WCI   1
WASHINGTON CO* MOCLDY    15   4  61 W10       29.83F WCI   2
$$

PAZ004>006-010>012-017>019-024>028-033>037-041-042-045-046-049>053-130500-
CENTRAL PENNSYLVANIA

CITY           SKY/WX    TMP DP  RH WIND       PRES   REMARKS
BRADFORD       LGT SNOW  10   5  80 W9        29.54F WCI  -3
DUBOIS         MOCLDY     8   3  80 W13       29.62F WCI  -8
CLEARFIELD     CLEAR     11   3  70 W12G21    29.64F WCI  -3
JOHNSTOWN      MIX PCPN  11   3  70 W22G32    29.60F WCI  -8
ALTOONA        CLOUDY    16   4  59 NW17G25   29.66F WCI   0
STATE COLLEGE  CLEAR     14   3  63 W16G23    29.65F WCI  -2
WILLIAMSPORT   MOCLDY    20   5  52 W12       29.62F WCI   8
SELINSGROVE    CLEAR     18   3  52 W9G21     29.67F WCI   7
FT INDIANTOWN  CLEAR     20  -3  37 W16G29    29.63S WCI   5
CAPITAL CITY   CLEAR     22  -3  33 NW17G30   29.67F WCI   8
HARRISBURG     PTCLDY    21   1  41 NW30G37   29.66F WCI   3
YORK           CLOUDY    20   2  45 NW17G26   29.67S WCI   5
$$

PAZ038>040-043-044-047-048-054-055-060>062-067>071-130500-
EASTERN PENNSYLVANIA

CITY           SKY/WX    TMP DP  RH WIND       PRES   REMARKS
SCRANTON       MOCLDY    20   3  48 NW20G25   29.51F WCI   4
MOUNT POCONO   CLOUDY    15   4  61 W24G40    29.39F WCI  -4
ALLENTOWN      CLEAR     23   4  44 W15G26    29.55S WCI  10
QUAKERTOWN*    PTCLDY    23   3  42 W12G21    29.55S WCI  12
READING        CLEAR     21   3  45 NW29G36   29.60S WCI   3
LANCASTER        N/A     21   5  50 NW22G32   29.62F WCI   5
COATESVILLE    CLEAR     19   5  53 NW22G32   29.59S WCI   3
POTTSTOWN      CLEAR     21   2  43 W18G30    29.59S WCI   6
BLUE BELL      CLEAR     23   3  42 W12G29    29.59R WCI  12
DOYLESTOWN     CLEAR     22   4  46 NW18G31   29.53R WCI   7
WILLOW GROVE   NOT AVBL
NORTH PHILA    CLEAR     26   6  42 W20G32    29.58R WCI  12
PHILADELPHIA   CLEAR     26   2  35 NW25G37   29.60R WCI  11
$$




USA.gov is the U.S. government's official web portal to all federal, state and local government web resources and services.